Dennison, MN

10:52 PM CST on February 22, 2017 (GMT -0600)
Stanton

Weather History for KSYN - October, 2013

Change the Weather History Date:

Saturday, October 12, 2013

  Actual Average (KLVN) Record (KLVN)
Temperature  
Mean Temperature 50 °F -  
Max Temperature 59 °F 60 °F 85 °F (1956)
Min Temperature 40 °F 38 °F 19 °F (2012)
Degree Days  
Heating Degree Days 16    
Moisture  
Dew Point 41 °F    
Average Humidity 68    
Maximum Humidity 86    
Minimum Humidity 38    
Precipitation  
Precipitation 0.00 in - - ()
Sea Level Pressure  
Sea Level Pressure 29.94 in    
Wind  
Wind Speed 9 mph (SW)    
Max Wind Speed 22 mph    
Max Gust Speed 29 mph    
Visibility 10 miles    
Events      
Averages and records for this station are not official NWS values.
T = Trace of Precipitation, MM = Missing Value Source: NWS Daily Summary

Daily Weather History Graph

Daily Weather History Graph

Search for Another Location

Airport or City:

Trip Planner

Search our weather history database for the weather conditions in past years. The results will help you decide how hot, cold, wet, or windy it might be!

Date:

Astronomy

Oct. 12, 2013 Rise Set
Actual Time 7:23 AM CDT 6:32 PM CDT
Civil Twilight 6:54 AM CDT 7:01 PM CDT
Nautical Twilight 6:20 AM CDT 7:35 PM CDT
Astronomical Twilight 5:47 AM CDT 8:08 PM CDT
Moon 2:55 PM CDT (10/12) 12:13 AM CDT (10/12)
Length of Visible Light 12h 07m
Length of Day
11h 08m
First Quarter, 59% of the Moon is Illuminated
Oct 12
First Quarter
Oct 18
Full
Oct 26
Last Quarter
Nov 3
New
Nov 9
First Quarter

Hourly Weather History & Observations

Time (CDT) Temp. Windchill Dew Point Humidity Pressure Visibility Wind Dir Wind Speed Gust Speed Precip Events Conditions
12:11 AM 59.0 °F - 54.7 °F 86% 29.73 in 10.0 mi SSW 6.9 mph - N/A   Overcast
12:32 AM 58.6 °F - 54.3 °F 86% 29.74 in 10.0 mi SSW 5.8 mph - N/A   Mostly Cloudy
12:52 AM 57.6 °F - 52.0 °F 82% 29.75 in 10.0 mi SSW 8.1 mph - N/A   Scattered Clouds
1:11 AM 55.9 °F - 50.5 °F 82% 29.76 in 10.0 mi SW 10.4 mph - N/A   Scattered Clouds
1:32 AM 55.4 °F - 49.1 °F 79% 29.77 in 10.0 mi SW 10.4 mph 16.1 mph N/A   Clear
1:52 AM 55.4 °F - 47.8 °F 76% 29.78 in 10.0 mi WSW 9.2 mph - N/A   Clear
2:11 AM 53.2 °F - 48.2 °F 83% 29.78 in 10.0 mi SSW 6.9 mph - N/A   Clear
2:32 AM 52.0 °F - 47.3 °F 84% 29.79 in 10.0 mi SW 6.9 mph - N/A   Clear
2:51 AM 51.8 °F - 46.4 °F 82% 29.79 in 10.0 mi SW 6.9 mph - N/A   Clear
3:12 AM 50.7 °F - 46.0 °F 84% 29.80 in 10.0 mi SSW 6.9 mph - N/A   Clear
3:31 AM 50.9 °F - 46.0 °F 83% 29.81 in 10.0 mi SSW 5.8 mph - N/A   Clear
3:52 AM 50.0 °F - 45.7 °F 85% 29.81 in 10.0 mi South 4.6 mph - N/A   Clear
4:11 AM 49.5 °F - 45.1 °F 85% 29.81 in 10.0 mi SSW 4.6 mph - N/A   Clear
4:32 AM 50.0 °F - 45.1 °F 83% 29.81 in 10.0 mi SSW 5.8 mph - N/A   Clear
4:52 AM 50.0 °F - 45.0 °F 83% 29.82 in 10.0 mi SSW 8.1 mph - N/A   Clear
5:11 AM 50.0 °F - 44.6 °F 82% 29.82 in 10.0 mi SSW 8.1 mph - N/A   Clear
5:32 AM 49.6 °F - 44.2 °F 82% 29.83 in 10.0 mi SW 8.1 mph - N/A   Clear
5:52 AM 49.5 °F - 44.1 °F 82% 29.83 in 10.0 mi SW 8.1 mph - N/A   Clear
6:11 AM 49.5 °F - 43.7 °F 81% 29.84 in 10.0 mi SSW 9.2 mph - N/A   Clear
6:32 AM 49.1 °F - 43.7 °F 82% 29.85 in 10.0 mi SSW 8.1 mph - N/A   Clear
6:52 AM 48.4 °F - 43.0 °F 82% 29.85 in 10.0 mi SSW 8.1 mph - N/A   Clear
7:12 AM 47.5 °F - 42.6 °F 83% 29.86 in 10.0 mi SSW 5.8 mph - N/A   Clear
7:32 AM 47.3 °F - 42.3 °F 83% 29.87 in 10.0 mi SW 10.4 mph - N/A   Clear
7:51 AM 48.0 °F - 42.1 °F 80% 29.88 in 10.0 mi SW 9.2 mph 17.3 mph N/A   Clear
8:12 AM 48.6 °F - 42.6 °F 80% 29.88 in 10.0 mi SW 11.5 mph - N/A   Clear
8:32 AM 49.6 °F - 43.0 °F 78% 29.89 in 10.0 mi SW 9.2 mph - N/A   Clear
8:51 AM 50.7 °F - 42.8 °F 74% 29.90 in 10.0 mi SSW 9.2 mph 16.1 mph N/A   Clear
9:12 AM 51.6 °F - 42.8 °F 72% 29.89 in 10.0 mi SW 10.4 mph 18.4 mph N/A   Clear
9:31 AM 52.3 °F - 42.6 °F 69% 29.90 in 10.0 mi SW 11.5 mph - N/A   Clear
9:52 AM 53.6 °F - 42.8 °F 67% 29.90 in 10.0 mi SW 11.5 mph 19.6 mph N/A   Clear
10:12 AM 53.8 °F - 41.9 °F 64% 29.91 in 10.0 mi SW 15.0 mph 19.6 mph N/A   Clear
10:31 AM 55.0 °F - 41.9 °F 61% 29.91 in 10.0 mi WSW 15.0 mph 23.0 mph N/A   Scattered Clouds
10:52 AM 55.4 °F - 41.0 °F 58% 29.92 in 10.0 mi WSW 12.7 mph 25.3 mph N/A   Clear
11:12 AM 56.1 °F - 41.0 °F 57% 29.92 in 10.0 mi WSW 13.8 mph 21.9 mph N/A   Mostly Cloudy
11:31 AM 56.3 °F - 40.3 °F 55% 29.93 in 10.0 mi West 13.8 mph 20.7 mph N/A   Mostly Cloudy
11:52 AM 55.8 °F - 39.9 °F 55% 29.94 in 10.0 mi West 11.5 mph 23.0 mph N/A   Overcast
12:12 PM 56.3 °F - 40.1 °F 55% 29.95 in 10.0 mi WSW 13.8 mph 23.0 mph N/A   Overcast
12:31 PM 56.5 °F - 40.3 °F 55% 29.95 in 10.0 mi West 15.0 mph 23.0 mph N/A   Overcast
12:52 PM 56.1 °F - 39.7 °F 54% 29.95 in 10.0 mi WSW 12.7 mph 16.1 mph N/A   Overcast
1:12 PM 57.6 °F - 38.3 °F 49% 29.95 in 10.0 mi WSW 16.1 mph 26.5 mph N/A   Overcast
1:31 PM 57.2 °F - 38.1 °F 49% 29.95 in 10.0 mi WSW 17.3 mph 27.6 mph N/A   Overcast
1:52 PM 57.4 °F - 38.7 °F 50% 29.95 in 10.0 mi West 15.0 mph 26.5 mph N/A   Overcast
2:12 PM 58.6 °F - 38.5 °F 47% 29.95 in 10.0 mi West 21.9 mph 27.6 mph N/A   Overcast
2:31 PM 58.6 °F - 38.5 °F 47% 29.96 in 10.0 mi West 18.4 mph 28.8 mph N/A   Mostly Cloudy
2:52 PM 58.1 °F - 38.7 °F 48% 29.97 in 10.0 mi West 20.7 mph 27.6 mph N/A   Mostly Cloudy
3:11 PM 56.3 °F - 38.8 °F 52% 29.98 in 10.0 mi West 18.4 mph 25.3 mph N/A   Mostly Cloudy
3:32 PM 56.1 °F - 39.9 °F 55% 30.00 in 10.0 mi West 15.0 mph 25.3 mph N/A   Overcast
3:52 PM 57.2 °F - 39.0 °F 51% 30.00 in 10.0 mi West 18.4 mph 26.5 mph N/A   Overcast
4:11 PM 57.2 °F - 37.2 °F 47% 30.00 in 10.0 mi West 18.4 mph 23.0 mph N/A   Scattered Clouds
4:32 PM 57.6 °F - 35.4 °F 43% 30.00 in 10.0 mi West 17.3 mph 25.3 mph N/A   Scattered Clouds
4:51 PM 58.3 °F - 36.1 °F 44% 30.01 in 10.0 mi West 13.8 mph 20.7 mph N/A   Scattered Clouds
5:12 PM 57.4 °F - 35.2 °F 43% 30.01 in 10.0 mi West 6.9 mph - N/A   Scattered Clouds
5:32 PM 58.5 °F - 34.9 °F 41% 30.02 in 10.0 mi West 10.4 mph - N/A   Scattered Clouds
5:51 PM 58.5 °F - 32.9 °F 38% 30.03 in 10.0 mi West 13.8 mph 21.9 mph N/A   Scattered Clouds
6:12 PM 57.2 °F - 34.9 °F 43% 30.04 in 10.0 mi WNW 8.1 mph - N/A   Mostly Cloudy
6:32 PM 56.3 °F - 35.1 °F 45% 30.05 in 10.0 mi WNW 8.1 mph - N/A   Overcast
6:52 PM 55.6 °F - 34.9 °F 46% 30.06 in 10.0 mi West 6.9 mph - N/A   Overcast
7:12 PM 54.1 °F - 34.5 °F 48% 30.07 in 10.0 mi West 6.9 mph - N/A   Scattered Clouds
7:31 PM 51.8 °F - 35.1 °F 53% 30.09 in 10.0 mi NW 5.8 mph - N/A   Clear
7:52 PM 50.9 °F - 36.3 °F 57% 30.10 in 10.0 mi NW 4.6 mph - N/A   Clear
8:12 PM 47.3 °F - 36.5 °F 66% 30.10 in 10.0 mi NW 3.5 mph - N/A   Clear
8:31 PM 48.7 °F - 37.0 °F 64% 30.11 in 10.0 mi Calm Calm - N/A   Clear
8:52 PM 44.2 °F - 37.8 °F 78% 30.12 in 10.0 mi Calm Calm - N/A   Clear
9:12 PM 42.6 °F - 37.2 °F 81% 30.12 in 10.0 mi Calm Calm - N/A   Clear
9:31 PM 41.0 °F 38.0 °F 36.3 °F 83% 30.13 in 10.0 mi South 4.6 mph - N/A   Clear
9:52 PM 42.8 °F 41.1 °F 36.7 °F 79% 30.14 in 10.0 mi SSW 3.5 mph - N/A   Clear
10:11 PM 41.4 °F 39.4 °F 36.0 °F 81% 30.14 in 10.0 mi SSW 3.5 mph - N/A   Clear
10:32 PM 40.5 °F 38.4 °F 36.1 °F 85% 30.15 in 10.0 mi SSW 3.5 mph - N/A   Clear
10:52 PM 41.4 °F 38.4 °F 36.0 °F 81% 30.15 in 10.0 mi SSW 4.6 mph - N/A   Clear
11:11 PM 40.5 °F 38.4 °F 36.0 °F 84% 30.16 in 10.0 mi SSW 3.5 mph - N/A   Clear
11:32 PM 40.8 °F 38.8 °F 35.8 °F 82% 30.17 in 10.0 mi SSW 3.5 mph - N/A   Clear
11:51 PM 41.5 °F - 35.4 °F 79% 30.18 in 10.0 mi Calm Calm - N/A   Clear